GW3247 Weather Reports


time (UTC)temp
C
wind
direction
speed
KPH
gust
KPH
rain 1hr
cm
rain 24hr
cm
rain mn
cm
humidity
%
barometer
mb
20260508211534 7 195 3.2 3.2 0.00 0.00 0.00 50 1025.2
20260508210026 8 200 3.2 6.4 0.00 0.00 0.00 49 1025.3
20260508204522 7 200 1.6 3.2 0.00 0.00 0.00 52 1025.1
20260508203021 8 217 0.0 3.2 0.00 0.00 0.00 52 1025.0
20260508201520 8 208 1.6 1.6 0.00 0.00 0.00 51 1025.0
20260508200018 9 155 0.0 0.0 0.00 0.00 0.00 49 1024.8
20260508194528 10 155 0.0 1.6 0.00 0.00 0.00 41 1024.8
20260508193016 10 172 0.0 3.2 0.00 0.00 0.00 40 1024.6
20260508191516 11 165 3.2 6.4 0.00 0.00 0.00 39 1024.5
20260508190014 11 195 4.8 8.0 0.00 0.00 0.00 38 1024.4
20260508184511 12 171 3.2 8.0 0.00 0.00 0.00 38 1024.2
20260508183019 12 204 6.4 12.9 0.00 0.00 0.00 33 1024.0
20260508181510 13 199 8.0 16.1 0.00 0.00 0.00 33 1023.9
20260508180013 13 205 11.3 20.9 0.00 0.00 0.00 32 1023.7
20260508174508 14 131 11.3 24.1 0.00 0.00 0.00 31 1023.7
20260508173006 13 224 12.9 22.5 0.00 0.00 0.00 34 1023.5
20260508171505 14 201 11.3 19.3 0.00 0.00 0.00 31 1023.5
20260508170005 14 233 14.5 24.1 0.00 0.00 0.00 30 1023.3
20260508164504 15 164 12.9 20.9 0.00 0.00 0.00 30 1023.3
20260508163109 15 202 11.3 0.0 0.00 0.00 0.00 28 1023.1
20260508161504 15 204 16.1 25.7 0.00 0.00 0.00 27 1023.1
20260508160002 15 215 9.7 20.9 0.00 0.00 0.00 27 1023.0
20260508154623 15 233 8.0 20.9 0.00 0.00 0.00 26 1023.0
20260508153058 15 238 11.3 20.9 0.00 0.00 0.00 26 1023.1
20260508151609 15 164 12.9 22.5 0.00 0.00 0.00 25 1023.2
20260508150058 15 150 11.3 22.5 0.00 0.00 0.00 27 1023.2
20260508144609 15 217 11.3 20.9 0.00 0.00 0.00 27 1023.4
20260508143105 15 193 12.9 19.3 0.00 0.00 0.00 28 1023.4
20260508141605 15 181 9.7 19.3 0.00 0.00 0.00 30 1023.4
20260508140055 15 226 11.3 20.9 0.00 0.00 0.00 30 1023.6
20260508134616 15 166 12.9 19.3 0.00 0.00 0.00 31 1023.5
20260508133058 15 218 12.9 22.5 0.00 0.00 0.00 34 1023.6
20260508131552 15 146 11.3 25.7 0.00 0.00 0.00 35 1023.6
20260508130051 15 210 9.7 24.1 0.00 0.00 0.00 35 1023.6
20260508124550 15 239 4.8 20.9 0.00 0.00 0.00 35 1023.5
20260508123052 15 198 11.3 22.5 0.00 0.00 0.00 35 1023.7
20260508121650 15 214 11.3 19.3 0.00 0.00 0.00 35 1023.6
20260508120047 15 160 4.8 20.9 0.00 0.00 0.00 36 1023.6
20260508114545 15 174 9.7 19.3 0.00 0.00 0.00 36 1023.7
20260508113044 14 242 11.3 19.3 0.00 0.00 0.00 34 1023.7
20260508111543 14 153 11.3 16.1 0.00 0.00 0.00 35 1023.8
20260508110040 13 146 6.4 16.1 0.00 0.00 0.00 37 1023.8
20260508104540 13 181 9.7 17.7 0.00 0.00 0.00 38 1023.9
20260508103038 13 169 14.5 24.1 0.00 0.00 0.00 40 1023.9
20260508101536 13 214 12.9 22.5 0.00 0.00 0.00 40 1023.9
20260508100034 12 167 8.0 22.5 0.00 0.00 0.00 43 1023.9
20260508094533 12 216 12.9 20.9 0.00 0.00 0.00 43 1023.9
20260508093032 12 203 12.9 19.3 0.00 0.00 0.00 40 1024.0
20260508091529 12 137 14.5 24.1 0.00 0.00 0.00 37 1023.9
20260508090043 12 205 12.9 22.5 0.00 0.00 0.00 44 1023.9
20260508084522 12 203 12.9 24.1 0.00 0.00 0.00 51 1023.9
20260508083020 12 200 12.9 17.7 0.00 0.00 0.00 54 1023.7
20260508081516 11 179 8.0 20.9 0.00 0.00 0.00 59 1023.6
20260508080017 11 158 9.7 17.7 0.00 0.00 0.00 61 1023.7
20260508074511 11 203 12.9 19.3 0.00 0.00 0.00 64 1023.6
20260508073008 10 233 12.9 17.7 0.00 0.00 0.00 72 1023.5
20260508071507 10 163 8.0 14.5 0.00 0.00 0.00 74 1023.4
20260508070003 10 166 11.3 16.1 0.00 0.00 0.00 76 1023.1
20260508064620 10 126 11.3 17.7 0.00 0.00 0.00 78 1022.9
20260508063109 10 122 11.3 14.5 0.00 0.00 0.00 80 1022.8
20260508061606 10 127 6.4 11.3 0.00 0.00 0.00 82 1022.6
20260508054548 9 141 0.0 3.2 0.00 0.00 0.00 86 1022.2
20260508053043 7 138 0.0 3.2 0.00 0.00 0.00 87 1022.1
20260508051556 6 221 3.2 4.8 0.00 0.00 0.00 87 1022.1
20260508050039 6 227 1.6 3.2 0.00 0.00 0.00 88 1022.0
20260508044537 5 232 1.6 3.2 0.00 0.00 0.00 88 1021.9
20260508043032 5 226 1.6 3.2 0.00 0.00 0.00 89 1021.8
20260508041528 4 221 3.2 4.8 0.00 0.00 0.00 89 1021.7
20260508040026 3 226 3.2 4.8 0.00 0.00 0.00 89 1021.6
20260508034537 3 225 1.6 4.8 0.00 0.00 0.00 88 1021.6
20260508033023 3 209 1.6 4.8 0.00 0.00 0.00 88 1021.5
20260508031522 3 238 4.8 6.4 0.00 0.00 0.00 88 1021.5
20260508030020 3 233 4.8 6.4 0.00 0.00 0.00 88 1021.4
20260508024540 3 240 4.8 6.4 0.00 0.00 0.00 88 1021.2
20260508023015 3 232 3.2 4.8 0.00 0.00 0.00 88 1021.2
20260508021519 3 219 3.2 6.4 0.00 0.00 0.00 88 1021.1
20260508020013 4 216 3.2 4.8 0.00 0.00 0.00 88 1021.0
20260508014512 4 227 3.2 6.4 0.00 0.00 0.00 88 1020.9
20260508013013 3 231 3.2 6.4 0.00 0.00 0.00 88 1020.9
20260508011506 3 238 3.2 6.4 0.00 0.00 0.00 87 1020.8
20260508010008 3 245 3.2 6.4 0.00 0.00 0.00 87 1020.8
20260508004503 4 249 3.2 4.8 0.00 0.00 0.00 86 1020.7
20260508003001 4 231 3.2 6.4 0.00 0.00 0.00 86 1020.6
20260508001600 4 242 3.2 4.8 0.00 0.00 0.00 86 1020.7
20260508000058 4 233 3.2 4.8 0.00 0.00 0.00 85 1020.6
20260507234558 5 240 3.2 4.8 0.00 0.00 0.00 84 1020.6
20260507233058 5 231 3.2 4.8 0.00 0.00 0.00 83 1020.6
20260507231555 5 236 1.6 4.8 0.00 0.00 0.00 83 1020.6
20260507230105 5 236 1.6 3.2 0.00 0.00 0.00 82 1020.5
20260507224552 5 236 1.6 3.2 0.00 0.00 0.00 81 1020.4
20260507223044 5 245 1.6 3.2 0.00 0.00 0.00 80 1020.4
20260507221544 6 233 1.6 4.8 0.00 0.00 0.00 79 1020.4
20260507220039 6 224 1.6 4.8 0.00 0.00 0.00 78 1020.3
20260507214538 6 226 1.6 4.8 0.00 0.00 0.00 76 1020.2
20260507213037 7 250 0.0 3.2 0.00 0.00 0.00 75 1020.1